Regional Weather Roundup
Issued by NWS

Home | Current Version | Previous Version | Text Only | Print | Product List | Glossary Off
Versions: 1 2 3 4 5 6 7 8 9 10 11 12 13 14 15 16 17 18 19 20 21 22 23 24 25 26 27 28 29 30 31 32 33 34 35 36 37 38 39 40 41 42 43 44 45 46 47 48 49 50

000
ASUS43 KFSD 291410
RWRSD

WEATHER ROUNDUP FOR SOUTH DAKOTA
NATIONAL WEATHER SERVICE SIOUX FALLS SD
900 AM CDT FRI APR 29 2016

NOTE: "FAIR" INDICATES FEW OR NO CLOUDS BELOW 12,000 FEET WITH NO
SIGNIFICANT WEATHER AND/OR OBSTRUCTIONS TO VISIBILITY.


SDZ001>005-009-010-012>017-291500-
NORTHWEST AND NORTH CENTRAL SOUTH DAKOTA

CITY           SKY/WX    TMP DP  RH WIND       PRES   REMARKS
BUFFALO          N/A     38  35  89 SE6       30.07R
FAITH            N/A     37  33  85 NE3       30.14S
MOBRIDGE       CLOUDY    45  41  86 CALM      30.14S
$$

SDZ012>016-024>037-041>051-057-063-072>074-291500-
SOUTHWEST AND SOUTH CENTRAL SOUTH DAKOTA

CITY           SKY/WX    TMP DP  RH WIND       PRES   REMARKS
RAPID CTY ARPT CLOUDY    38  34  85 NE5       30.10F
PIERRE         CLOUDY    42  36  79 E8        30.14F
CUSTER         CLOUDY    32  29  88 NE3       30.02F
ELLSWORTH AFB  CLOUDY    37  37 100 NE5       30.09F
PHILIP         CLOUDY    42  36  79 E9        30.13S
PINE RIDGE     CLOUDY    38  33  82 CALM      30.09S
WINNER         CLOUDY    41  36  82 NE9       30.11F
$$

SDZ004>011-016>023-039-040-291500-
NORTHEAST SOUTH DAKOTA

CITY           SKY/WX    TMP DP  RH WIND       PRES   REMARKS
ABERDEEN       PTSUNNY   45  38  76 NE3       30.18F
WATERTOWN      CLOUDY    42  38  85 NE9       30.15F
BROOKINGS        N/A     40  36  86 MISG      30.16R
SISSETON         N/A     47  38  71 W3        30.19S
$$

SDZ017-020-022-023-036>040-048>070-291500-
SOUTHEAST SOUTH DAKOTA

CITY           SKY/WX    TMP DP  RH WIND       PRES   REMARKS
SIOUX FALLS    CLOUDY    41  36  82 NE13      30.14F
HURON          MOSUNNY   43  37  79 NE14      30.15F
CHAMBERLAIN    CLOUDY    40  38  92 NE5       30.14F
MITCHELL       CLOUDY    41  38  89 NE8       30.16S
YANKTON        CLOUDY    41  36  81 N9        30.11F
$$

ABBREVIATIONS USED IN REMARKS
   TC - TEMPERATURE IN CELSIUS
  WCI - WIND CHILL INDEX
   HX - HEAT INDEX
  VSB - VISIBILITY





USA.gov is the U.S. government's official web portal to all federal, state and local government web resources and services.